[[{"header":{"parameterUnit":"m.s-1","parameterCategory":1,"la1":30.2991,"la2":30.254,"lo1":-89.0895,"lo2":-89.0444,"dy":0.0017,"dx":0.0017,"nx":28,"ny":28,"refTime":"2025-01-03T09:00:00:Z","depth":0,"parameterNumber":2,"parameterNumberName":"U-component_of_WINDS"},"data":[0,0,0,0,0,0,0,0,0,0,0,0,0,0,0,0,0,0,0,0,0,0,0,0,0,0,0,0,0,0,0,0,0,0,0,0,0,0,0,0,0,0,0,0,0,0,0,0,0,0,0,0,0,0,0,0,0,0,-1.8337,-1.8337,0,-1.8314,-1.8313,-1.8313,-1.8198,-1.8195,-1.8192,-1.819,-1.8171,-1.8173,-1.8175,0,0,0,0,0,0,0,0,0,0,0,0,0,-1.8286,-1.8287,-1.8337,-1.8337,-1.8337,-1.8314,-1.8313,-1.8313,-1.8198,-1.8195,-1.8192,-1.8188,-1.817,-1.8173,-1.8175,0,0,0,0,0,0,0,0,0,0,0,0,0,-1.829,-1.8288,-1.8337,-1.8276,-1.8271,-1.8314,-1.8313,-1.8313,-1.8199,-1.8195,-1.8191,-1.8187,-1.8169,-1.8172,-1.8176,-1.8277,0,0,-1.8185,-1.8186,0,0,0,0,0,0,0,0,-1.829,-1.8292,-1.8286,-1.8281,-1.8274,-1.8254,-1.8288,-1.8301,-1.82,-1.8226,-1.819,-1.8185,-1.8202,-1.8202,-1.8207,-1.8276,-1.8275,-1.8185,-1.8187,-1.8188,-1.8189,0,0,0,0,0,0,0,-1.829,-1.8293,-1.8328,-1.8286,-1.8279,-1.8251,-1.8247,-1.829,-1.8238,-1.8224,-1.8215,-1.8214,-1.8199,-1.8205,-1.8206,-1.8275,-1.8185,-1.8188,-1.819,-1.8191,-1.8424,-1.8428,0,0,0,0,0,0,-1.8298,-1.8293,-1.8329,-1.8327,-1.8272,-1.8256,-1.8251,-1.8265,-1.8237,-1.8229,-1.8217,-1.8208,-1.8201,-1.8203,-1.8205,-1.832,-1.8188,-1.8191,-1.8193,-1.8419,-1.8425,-1.8429,0,0,0,0,0,0,-1.8297,-1.8302,-1.833,-1.8308,-1.8309,-1.8261,-1.8277,-1.8267,-1.8272,-1.8232,-1.8223,-1.8233,-1.8198,-1.8201,-1.8259,-1.8318,-1.8193,-1.8196,-1.8414,-1.8421,-1.8427,-1.8552,0,0,0,0,0,0,-1.8296,-1.8302,-1.834,-1.8309,-1.8311,-1.8384,-1.8281,-1.8269,-1.8277,-1.8266,-1.8244,-1.8237,-1.8195,-1.8255,-1.8262,-1.832,-1.8198,-1.8409,-1.8417,-1.8425,-1.8542,-1.8562,-1.8578,0,0,0,0,0,-1.8294,-1.8378,-1.8342,-1.8347,-1.8356,-1.8387,-1.8388,-1.8337,-1.8283,-1.832,-1.8294,-1.8237,-1.831,-1.8262,-1.8269,-1.8328,-1.8405,-1.8415,-1.8424,-1.8534,-1.8558,-1.8578,0,0,0,0,0,0,-1.8419,-1.8373,-1.8333,-1.8408,-1.8402,-1.8367,-1.8413,-1.8364,-1.8375,-1.8363,-1.8301,-1.8297,-1.8365,-1.8352,-1.8299,-1.8424,-1.8348,-1.8359,-1.8429,-1.8451,-1.8469,-1.847,-1.8201,0,0,0,0,0,-1.8454,-1.8482,-1.8441,-1.8511,-1.851,-1.8463,-1.8474,-1.8435,-1.8427,-1.8424,-1.8402,-1.8398,-1.8419,-1.8435,-1.8453,-1.854,-1.8533,-1.8584,-1.8603,-1.8618,-1.8628,-1.8671,-1.8693,-1.8461,-1.8461,-1.8461,0,0,-1.8529,-1.8507,-1.8529,-1.8536,-1.8526,-1.8556,-1.8461,-1.8498,-1.852,-1.843,-1.8483,-1.8467,-1.8458,-1.8531,-1.8562,-1.8523,-1.8691,-1.863,-1.8642,-1.8644,-1.8684,-1.8706,-1.8725,-1.8468,-1.8467,-1.8465,0,0,-1.868,-1.8668,-1.8723,-1.8715,-1.8701,-1.8668,-1.8682,-1.8655,-1.8639,-1.8691,-1.8623,-1.865,-1.8689,-1.8684,-1.8687,-1.8834,-1.8782,-1.8842,-1.8937,-1.898,-1.8998,-1.9014,-1.9064,-1.9083,-1.8853,-1.8854,-1.8854,0,-1.8776,-1.8817,-1.8759,-1.8799,-1.8803,-1.8721,-1.8777,-1.8773,-1.8767,-1.8772,-1.8728,-1.8773,-1.8762,-1.8831,-1.8867,-1.8873,-1.8886,-1.8844,-1.9,-1.9015,-1.9029,-1.9076,-1.9096,-1.8861,-1.886,-1.8859,-1.8858,0,-1.8934,-1.8964,-1.9011,-1.9004,-1.9014,-1.9062,-1.9012,-1.9029,-1.8989,-1.8962,-1.9014,-1.8997,-1.9009,-1.9023,-1.8985,-1.9087,-1.9062,-1.901,-1.8932,-1.9059,-1.9103,-1.9121,-1.8871,-1.8868,-1.8866,-1.8864,0,0,-1.9163,-1.9121,-1.9139,-1.9134,-1.9112,-1.9134,-1.9179,-1.9188,-1.9203,-1.9202,-1.9237,-1.9271,-1.9221,-1.9225,-1.9186,-1.9224,-1.9339,-1.9166,-1.9165,-1.9197,-1.9447,-1.9485,-1.9507,-1.9305,-1.9308,-1.9311,-1.9447,0,-1.9306,-1.9377,-1.9325,-1.9406,-1.9432,-1.9354,-1.9392,-1.9383,-1.9359,-1.9378,-1.9351,-1.9375,-1.9309,-1.931,-1.9344,-1.9318,-1.9388,-1.9308,-1.9337,-1.9338,-1.9339,-1.953,-1.9571,-1.9701,-1.9464,-1.9467,-1.9469,0,-1.9482,-1.9485,-1.9568,-1.9537,-1.9546,-1.9582,-1.9584,-1.9604,-1.9592,-1.9571,-1.9574,-1.9525,-1.9566,-1.9491,-1.9547,-1.9493,-1.9502,-1.9491,-1.9495,-1.9494,-1.941,-1.9533,-1.9741,-1.976,-1.9496,-1.9494,-1.9492,0,-1.9638,-1.9663,-1.9715,-1.9713,-1.968,-1.9706,-1.9694,-1.9677,-1.9686,-1.9689,-1.9693,-1.9703,-1.9708,-1.9717,-1.9671,-1.962,-1.9733,-1.9654,-1.9716,-1.9717,-1.9742,-1.9741,-1.9953,-1.9752,-1.9752,-1.9751,-1.9751,0,-1.9802,-1.9856,-1.9784,-1.9816,-1.9873,-1.9813,-1.9872,-1.9851,-1.9837,-1.9864,-1.9798,-1.9825,-1.9764,-1.9785,-1.975,-1.9801,-1.9804,-1.9788,-1.9778,-1.9793,-1.9795,-1.9797,-1.9786,-1.9756,-1.9755,-1.9754,-1.9753,0,-1.9986,-1.9941,-1.9991,-1.9954,-1.9946,-1.999,-1.9959,-1.9987,-1.9957,-1.9992,-1.9997,-1.9951,-1.9971,-1.9927,-1.9943,-1.9919,-1.999,-1.9967,-1.9993,-1.9985,-2.0049,-2.0043,-2.0269,-2.0294,-2.0079,-2.0081,-2.0083,0,-2.0093,-2.0131,-2.0098,-2.0109,-2.01,-2.0121,-2.0127,-2.0071,-2.0081,-2.0068,-2.0098,-2.0113,-2.0121,-2.0158,-2.0127,-2.0138,-2.0113,-2.0191,-2.0114,-2.0127,-2.0111,-2.0109,-2.0111,-2.0207,-2.0209,-2.0211,-2.0213,0,-2.0286,-2.0261,-2.0272,-2.0276,-2.0285,-2.0285,-2.0281,-2.0296,-2.0235,-2.0249,-2.0268,-2.0275,-2.0289,-2.0304,-2.0307,-2.0295,-2.0244,-2.0238,-2.0252,-2.0267,-2.028,-2.0271,-2.0034,-2.0233,-2.0231,-2.0229,-2.0228,-2.0227,-2.0433,-2.0462,-2.0442,-2.0457,-2.0447,-2.0444,-2.0467,-2.0439,-2.0454,-2.0459,-2.0425,-2.0451,-2.0436,-2.0435,-2.0429,-2.0448,-2.0413,-2.0435,-2.044,-2.0446,-2.0455,-2.0278,-2.0449,-2.0449,-2.0448,-2.0448,-2.0447,0,-2.0621,-2.0604,-2.0617,-2.0612,-2.0623,-2.0572,-2.0564,-2.0577,-2.06,-2.059,-2.0599,-2.062,-2.0634,-2.0603,-2.0612,-2.0634,-2.061,-2.0638,-2.0635,-2.0632,-2.0488,-2.0473,-2.0656,-2.0656,-2.0656,-2.0656,-2.0656,-2.0656,-2.072,-2.0766,-2.0738,-2.0779,-2.0761,-2.0784,-2.0784,-2.0781,-2.0772,-2.0797,-2.0807,-2.0786,-2.0768,-2.0774,-2.0785,-2.0775,-2.0781,-2.0816,-2.0799,-2.0664,-2.0643,-2.0624,-2.0609,-2.0818,-2.0819,-2.0941,-2.0942,-2.0943]},{"header":{"parameterUnit":"m.s-1","parameterCategory":1,"la1":30.2991,"la2":30.254,"lo1":-89.0895,"lo2":-89.0444,"dy":0.0017,"dx":0.0017,"nx":28,"ny":28,"refTime":"2025-01-03T09:00:00:Z","depth":0,"parameterNumber":3,"parameterNumberName":"V-component_of_WINDS"},"data":[0,0,0,0,0,0,0,0,0,0,0,0,0,0,0,0,0,0,0,0,0,0,0,0,0,0,0,0,0,0,0,0,0,0,0,0,0,0,0,0,0,0,0,0,0,0,0,0,0,0,0,0,0,0,0,0,0,0,-1.5324,-1.5324,0,-1.5322,-1.5322,-1.5322,-1.5316,-1.5316,-1.5316,-1.5316,-1.5311,-1.5311,-1.5311,0,0,0,0,0,0,0,0,0,0,0,0,0,-1.5318,-1.5318,-1.5324,-1.5324,-1.5324,-1.5322,-1.5322,-1.5322,-1.5316,-1.5316,-1.5316,-1.5315,-1.5311,-1.5311,-1.5311,0,0,0,0,0,0,0,0,0,0,0,0,0,-1.5319,-1.5318,-1.5324,-1.5321,-1.5321,-1.5322,-1.5322,-1.5322,-1.5316,-1.5316,-1.5316,-1.5315,-1.5311,-1.5311,-1.5311,-1.5315,0,0,-1.5311,-1.5311,0,0,0,0,0,0,0,0,-1.5319,-1.5319,-1.5321,-1.5321,-1.5321,-1.5319,-1.5319,-1.532,-1.5316,-1.5318,-1.5316,-1.5315,-1.5314,-1.5314,-1.5314,-1.5315,-1.5315,-1.5311,-1.5311,-1.5311,-1.5311,0,0,0,0,0,0,0,-1.5319,-1.5319,-1.5324,-1.5321,-1.5321,-1.5318,-1.5318,-1.5319,-1.5317,-1.5318,-1.5317,-1.5317,-1.5314,-1.5314,-1.5313,-1.5315,-1.5311,-1.5311,-1.5311,-1.5311,-1.5317,-1.5317,0,0,0,0,0,0,-1.532,-1.5319,-1.5324,-1.5323,-1.5319,-1.5318,-1.5318,-1.532,-1.5317,-1.5316,-1.5317,-1.5317,-1.5314,-1.5313,-1.5313,-1.5317,-1.5311,-1.5311,-1.5311,-1.5317,-1.5317,-1.5317,0,0,0,0,0,0,-1.532,-1.532,-1.5324,-1.5321,-1.5321,-1.5319,-1.5321,-1.532,-1.532,-1.5317,-1.5316,-1.5318,-1.5314,-1.5313,-1.5314,-1.5316,-1.5311,-1.5311,-1.5317,-1.5317,-1.5317,-1.5324,0,0,0,0,0,0,-1.532,-1.532,-1.5323,-1.5321,-1.5322,-1.5326,-1.5321,-1.532,-1.532,-1.532,-1.5317,-1.5316,-1.5313,-1.5314,-1.5314,-1.5316,-1.5311,-1.5316,-1.5317,-1.5317,-1.5324,-1.5324,-1.5325,0,0,0,0,0,-1.5319,-1.5325,-1.5323,-1.5324,-1.5325,-1.5326,-1.5326,-1.5324,-1.5321,-1.5323,-1.532,-1.5317,-1.5316,-1.5315,-1.5315,-1.5316,-1.5316,-1.5317,-1.5317,-1.5323,-1.5324,-1.5325,0,0,0,0,0,0,-1.5327,-1.5325,-1.5323,-1.5329,-1.5328,-1.5325,-1.5328,-1.5325,-1.5324,-1.5324,-1.5319,-1.5319,-1.532,-1.5318,-1.5317,-1.5319,-1.5315,-1.5316,-1.532,-1.5321,-1.5322,-1.5322,-1.5311,0,0,0,0,0,-1.5329,-1.5332,-1.5329,-1.5334,-1.5334,-1.5331,-1.5331,-1.5329,-1.5328,-1.5327,-1.5325,-1.5323,-1.5322,-1.5321,-1.5321,-1.5323,-1.5321,-1.5324,-1.5325,-1.5325,-1.5326,-1.5325,-1.5325,-1.5318,-1.5318,-1.5318,0,0,-1.5334,-1.5333,-1.5335,-1.5336,-1.5335,-1.5336,-1.5331,-1.5333,-1.5333,-1.5327,-1.5328,-1.5326,-1.5323,-1.5324,-1.5325,-1.5323,-1.5327,-1.5326,-1.5326,-1.5326,-1.5325,-1.5326,-1.5326,-1.5318,-1.5318,-1.5318,0,0,-1.5343,-1.5344,-1.5347,-1.5346,-1.5345,-1.5342,-1.5343,-1.534,-1.5339,-1.534,-1.5335,-1.5334,-1.5333,-1.5331,-1.533,-1.5335,-1.5331,-1.5335,-1.5339,-1.5338,-1.5338,-1.5339,-1.5339,-1.534,-1.5335,-1.5335,-1.5335,0,-1.5349,-1.5352,-1.5349,-1.535,-1.535,-1.5345,-1.5347,-1.5346,-1.5344,-1.5343,-1.5341,-1.5338,-1.5336,-1.5336,-1.5337,-1.5337,-1.5336,-1.5335,-1.5339,-1.5339,-1.534,-1.534,-1.534,-1.5335,-1.5335,-1.5335,-1.5335,0,-1.5358,-1.536,-1.5362,-1.5361,-1.5361,-1.5363,-1.5358,-1.5358,-1.5355,-1.5352,-1.5351,-1.5348,-1.5346,-1.5346,-1.5343,-1.5344,-1.5343,-1.534,-1.5336,-1.5341,-1.5341,-1.5341,-1.5336,-1.5336,-1.5336,-1.5336,0,0,-1.5374,-1.5369,-1.537,-1.5368,-1.5365,-1.5366,-1.5366,-1.5364,-1.5363,-1.5361,-1.536,-1.5359,-1.5355,-1.5354,-1.535,-1.5349,-1.5352,-1.5346,-1.5346,-1.5346,-1.5351,-1.5353,-1.5353,-1.5349,-1.5349,-1.5349,-1.5351,0,-1.5382,-1.5384,-1.538,-1.5382,-1.5382,-1.5376,-1.5376,-1.5373,-1.537,-1.5368,-1.5364,-1.5362,-1.5359,-1.5357,-1.5356,-1.5352,-1.5353,-1.5352,-1.5347,-1.5347,-1.5348,-1.5354,-1.5356,-1.5358,-1.5351,-1.5351,-1.5351,0,-1.5392,-1.539,-1.5392,-1.5387,-1.5387,-1.5387,-1.5384,-1.5383,-1.5379,-1.5376,-1.5373,-1.5369,-1.5367,-1.5363,-1.536,-1.5359,-1.5357,-1.5354,-1.5354,-1.5353,-1.5349,-1.5352,-1.5359,-1.5359,-1.5352,-1.5351,-1.5351,0,-1.5401,-1.5399,-1.54,-1.5399,-1.5393,-1.5393,-1.5391,-1.5386,-1.5384,-1.5381,-1.5379,-1.5375,-1.5373,-1.5369,-1.5363,-1.5361,-1.5359,-1.5356,-1.5356,-1.5356,-1.5356,-1.5356,-1.5362,-1.5355,-1.5355,-1.5355,-1.5355,0,-1.541,-1.5411,-1.5404,-1.5404,-1.5405,-1.5399,-1.5399,-1.5396,-1.5391,-1.539,-1.5384,-1.5382,-1.5374,-1.5371,-1.5366,-1.5363,-1.5362,-1.5359,-1.5357,-1.5359,-1.5359,-1.5357,-1.5357,-1.5355,-1.5355,-1.5355,-1.5355,0,-1.5421,-1.5416,-1.5416,-1.541,-1.5409,-1.5409,-1.5403,-1.5402,-1.5398,-1.5396,-1.5395,-1.5388,-1.5383,-1.5377,-1.537,-1.5367,-1.5364,-1.5362,-1.5366,-1.5365,-1.5365,-1.5365,-1.5369,-1.5369,-1.5363,-1.5363,-1.5363,0,-1.5426,-1.5427,-1.5421,-1.542,-1.5417,-1.5416,-1.5413,-1.5407,-1.5405,-1.5399,-1.5398,-1.5393,-1.5389,-1.5382,-1.5376,-1.537,-1.5367,-1.5369,-1.5367,-1.5368,-1.5366,-1.5366,-1.5365,-1.537,-1.537,-1.537,-1.537,0,-1.5437,-1.5434,-1.5432,-1.5428,-1.5426,-1.5423,-1.5419,-1.5418,-1.541,-1.5408,-1.5404,-1.54,-1.5393,-1.5388,-1.5381,-1.5377,-1.5372,-1.5371,-1.537,-1.5372,-1.5374,-1.5372,-1.5367,-1.5371,-1.5371,-1.5371,-1.5371,-1.5371,-1.5444,-1.5444,-1.5439,-1.5436,-1.5433,-1.5429,-1.5428,-1.5423,-1.5419,-1.5414,-1.541,-1.5405,-1.5398,-1.5388,-1.5384,-1.5379,-1.5377,-1.5377,-1.5377,-1.5377,-1.5377,-1.5375,-1.5378,-1.5378,-1.5378,-1.5378,-1.5378,0,-1.5453,-1.545,-1.5447,-1.5442,-1.5439,-1.5435,-1.543,-1.5428,-1.5424,-1.5419,-1.5414,-1.5408,-1.5402,-1.5395,-1.5388,-1.5385,-1.5383,-1.5384,-1.5384,-1.5382,-1.5379,-1.538,-1.5386,-1.5386,-1.5386,-1.5386,-1.5386,-1.5386,-1.5458,-1.5456,-1.5453,-1.5449,-1.5445,-1.5441,-1.5438,-1.5434,-1.5429,-1.5423,-1.5418,-1.5413,-1.5406,-1.5399,-1.5392,-1.539,-1.5387,-1.5389,-1.5386,-1.5383,-1.5383,-1.5382,-1.5383,-1.5389,-1.5389,-1.5389,-1.5389,-1.5389]}]]